TimeCST,TemperatureF,Dew PointF,Humidity,Sea Level PressureIn,VisibilityMPH,Wind Direction,Wind SpeedMPH,Gust SpeedMPH,PrecipitationIn,Events,Conditions,WindDirDegrees,DateUTC
12:15 AM,24.8,6.8,46,30.02,10.0,South,11.5,-,N/A,,Clear,180,2012-12-12 06:15:00
12:35 AM,23.0,5.0,46,30.01,10.0,SSE,11.5,-,N/A,,Clear,160,2012-12-12 06:35:00
12:55 AM,23.0,5.0,46,30.01,10.0,South,12.7,-,N/A,,Clear,180,2012-12-12 06:55:00
1:15 AM,24.8,6.8,46,30.00,10.0,SSW,12.7,-,N/A,,Clear,200,2012-12-12 07:15:00
1:35 AM,24.8,6.8,46,30.00,10.0,SSW,11.5,-,N/A,,Clear,200,2012-12-12 07:35:00
1:55 AM,23.0,5.0,46,29.99,10.0,SSW,10.4,-,N/A,,Clear,200,2012-12-12 07:55:00
2:15 AM,21.2,6.8,54,30.00,10.0,SSW,10.4,-,N/A,,Clear,200,2012-12-12 08:15:00
2:35 AM,19.4,3.2,49,30.00,10.0,South,10.4,-,N/A,,Clear,190,2012-12-12 08:35:00
2:55 AM,19.4,6.8,58,29.99,10.0,SSW,10.4,-,N/A,,Clear,200,2012-12-12 08:55:00
3:15 AM,21.2,6.8,54,29.99,10.0,South,12.7,-,N/A,,Clear,190,2012-12-12 09:15:00
3:35 AM,23.0,6.8,50,29.99,10.0,South,12.7,-,N/A,,Clear,180,2012-12-12 09:35:00
3:55 AM,24.8,8.6,50,29.99,10.0,South,12.7,-,N/A,,Clear,190,2012-12-12 09:55:00
4:15 AM,23.0,6.8,50,29.99,10.0,South,12.7,-,N/A,,Clear,180,2012-12-12 10:15:00
4:35 AM,21.2,8.6,58,29.98,10.0,SSW,11.5,-,N/A,,Clear,200,2012-12-12 10:35:00
4:55 AM,21.2,6.8,54,29.98,10.0,SSW,9.2,-,N/A,,Clear,200,2012-12-12 10:55:00
5:15 AM,19.4,6.8,58,29.97,10.0,South,11.5,-,N/A,,Clear,180,2012-12-12 11:15:00
5:35 AM,19.4,6.8,58,29.97,10.0,South,11.5,-,N/A,,Clear,180,2012-12-12 11:35:00
5:55 AM,21.2,8.6,58,29.97,10.0,South,10.4,-,N/A,,Clear,180,2012-12-12 11:55:00
6:15 AM,21.2,8.6,58,29.97,10.0,South,11.5,-,N/A,,Clear,180,2012-12-12 12:15:00
6:35 AM,21.2,6.8,54,29.97,10.0,SSW,11.5,-,N/A,,Clear,200,2012-12-12 12:35:00
7:15 AM,21.2,8.6,58,29.96,10.0,South,11.5,-,N/A,,Clear,180,2012-12-12 13:15:00
7:35 AM,19.4,6.8,58,29.97,10.0,South,11.5,-,N/A,,Clear,180,2012-12-12 13:35:00
7:55 AM,21.2,8.6,58,29.96,10.0,South,12.7,-,N/A,,Clear,190,2012-12-12 13:55:00
8:15 AM,23.0,8.6,54,29.96,10.0,South,11.5,-,N/A,,Clear,190,2012-12-12 14:15:00
8:35 AM,23.0,8.6,54,29.96,10.0,South,13.8,-,N/A,,Clear,180,2012-12-12 14:35:00
8:55 AM,26.6,12.2,55,29.96,10.0,South,13.8,-,N/A,,Clear,190,2012-12-12 14:55:00
9:15 AM,28.4,12.2,51,29.96,10.0,South,13.8,-,N/A,,Clear,180,2012-12-12 15:15:00
9:35 AM,30.2,15.8,55,29.97,10.0,South,18.4,24.2,N/A,,Clear,180,2012-12-12 15:35:00
9:55 AM,33.8,15.8,48,29.98,10.0,South,17.3,23.0,N/A,,Clear,190,2012-12-12 15:55:00
10:15 AM,35.6,17.6,48,29.98,10.0,SSW,16.1,-,N/A,,Clear,210,2012-12-12 16:15:00
10:35 AM,37.4,15.8,41,29.99,10.0,SSW,18.4,-,N/A,,Clear,210,2012-12-12 16:35:00
10:55 AM,39.2,15.8,39,29.98,10.0,SSW,16.1,-,N/A,,Clear,210,2012-12-12 16:55:00
11:15 AM,42.8,17.6,36,29.97,10.0,SSW,16.1,-,N/A,,Clear,210,2012-12-12 17:15:00
11:35 AM,44.6,17.6,34,29.97,10.0,SSW,16.1,-,N/A,,Clear,200,2012-12-12 17:35:00
11:55 AM,44.6,17.6,34,29.97,10.0,South,17.3,20.7,N/A,,Clear,190,2012-12-12 17:55:00
12:15 PM,46.4,17.6,32,29.97,10.0,South,18.4,-,N/A,,Clear,190,2012-12-12 18:15:00
12:35 PM,48.2,17.6,30,29.96,10.0,South,16.1,23.0,N/A,,Clear,190,2012-12-12 18:35:00
12:55 PM,48.2,17.6,30,29.95,10.0,South,16.1,-,N/A,,Clear,190,2012-12-12 18:55:00
1:15 PM,50.0,17.6,28,29.94,10.0,South,13.8,-,N/A,,Clear,180,2012-12-12 19:15:00
1:35 PM,51.8,17.6,26,29.93,10.0,South,15.0,-,N/A,,Clear,190,2012-12-12 19:35:00
1:55 PM,53.6,17.6,24,29.93,10.0,South,17.3,-,N/A,,Clear,180,2012-12-12 19:55:00
2:15 PM,53.6,17.6,24,29.92,10.0,South,16.1,-,N/A,,Clear,180,2012-12-12 20:15:00
2:35 PM,53.6,17.6,24,29.92,10.0,South,13.8,-,N/A,,Clear,170,2012-12-12 20:35:00
2:55 PM,55.4,17.6,23,29.92,10.0,South,15.0,-,N/A,,Clear,180,2012-12-12 20:55:00
3:15 PM,55.4,17.6,23,29.92,10.0,South,17.3,-,N/A,,Clear,170,2012-12-12 21:15:00
3:35 PM,55.4,17.6,23,29.91,10.0,South,17.3,20.7,N/A,,Clear,170,2012-12-12 21:35:00
3:55 PM,55.4,17.6,23,29.91,10.0,South,17.3,-,N/A,,Clear,170,2012-12-12 21:55:00
4:15 PM,55.4,17.6,23,29.92,10.0,South,13.8,20.7,N/A,,Clear,170,2012-12-12 22:15:00
4:35 PM,55.4,17.6,23,29.92,10.0,South,13.8,-,N/A,,Clear,180,2012-12-12 22:35:00
4:55 PM,53.6,15.8,22,29.91,10.0,South,12.7,-,N/A,,Clear,170,2012-12-12 22:55:00
5:15 PM,51.8,14.0,22,29.91,10.0,South,11.5,-,N/A,,Clear,170,2012-12-12 23:15:00
5:35 PM,46.4,12.2,25,29.91,10.0,South,10.4,-,N/A,,Clear,170,2012-12-12 23:35:00
6:15 PM,44.6,12.2,27,29.91,10.0,SSE,13.8,-,N/A,,Clear,160,2012-12-13 00:15:00
6:55 PM,42.8,10.4,27,29.92,10.0,South,13.8,-,N/A,,Clear,170,2012-12-13 00:55:00
7:15 PM,41.0,12.2,31,29.92,10.0,South,12.7,-,N/A,,Clear,170,2012-12-13 01:15:00
7:35 PM,42.8,12.2,29,29.92,10.0,SSE,12.7,-,N/A,,Clear,160,2012-12-13 01:35:00
7:55 PM,39.2,10.4,31,29.93,10.0,South,11.5,-,N/A,,Clear,170,2012-12-13 01:55:00
8:15 PM,39.2,10.4,31,29.93,10.0,South,12.7,-,N/A,,Clear,170,2012-12-13 02:15:00
8:35 PM,37.4,10.4,33,29.94,10.0,South,10.4,-,N/A,,Clear,170,2012-12-13 02:35:00
8:55 PM,35.6,10.4,35,29.94,10.0,South,11.5,-,N/A,,Clear,170,2012-12-13 02:55:00
9:15 PM,37.4,12.2,36,29.94,10.0,South,10.4,-,N/A,,Clear,170,2012-12-13 03:15:00
9:35 PM,35.6,8.6,33,29.94,10.0,South,11.5,-,N/A,,Clear,180,2012-12-13 03:35:00
9:55 PM,35.6,10.4,35,29.95,10.0,South,11.5,-,N/A,,Clear,170,2012-12-13 03:55:00
10:15 PM,35.6,12.2,38,29.95,10.0,South,12.7,-,N/A,,Clear,170,2012-12-13 04:15:00
10:35 PM,35.6,12.2,38,29.95,10.0,South,12.7,-,N/A,,Clear,180,2012-12-13 04:35:00
10:55 PM,35.6,10.4,35,29.95,10.0,South,11.5,-,N/A,,Clear,180,2012-12-13 04:55:00
11:15 PM,35.6,10.4,35,29.95,10.0,South,11.5,-,N/A,,Clear,190,2012-12-13 05:15:00
11:35 PM,35.6,12.2,38,29.95,10.0,South,12.7,-,N/A,,Clear,190,2012-12-13 05:35:00
11:55 PM,35.6,12.2,38,29.95,10.0,South,12.7,-,N/A,,Clear,190,2012-12-13 05:55:00